CAPE
0 0 0 0 0 0 0 1 410 797 1700 1605 1276 1103 1121 1605 1594 1283 1186 1255 1290 1041 674 493 622 293 127 148 203 32 0 0 0 0 0 0 0 0 0 1 3 10 14
0 0 0 0 0 0 0 0 0 0 389 1403 1813 1516 1219 777 1055 1140 1453 1280 999 984 825 994 770 405 252 196 152 173 60 49 0 0 0 0 0 0 0 0 0 0 0
0 0 0 0 0 0 0 0 0 0 0 0 114 560 1468 1069 933 674 717 774 1036 866 898 800 751 665 839 310 318 208 130 116 40 34 37 0 0 0 0 0 0 0 0
0 0 0 0 0 0 0 0 0 0 0 0 0 0 0 6 7 351 587 1042 958 660 578 683 997 760 665 632 810 322 322 239 38 135 63 0 0 0 0 0 0 0 0
0 0 0 0 0 0 0 0 0 0 0 0 0 0 0 0 0 1 2 0 1 495 665 577 851 467 594 620 536 573 505 111 313 164 17 32 7 0 0 0 0 0 0
0 0 0 0 0 0 0 0 0 0 0 0 0 0 0 0 0 0 0 3 6 10 33 138 184 228 391 256 312 261 379 402 156 41 18 75 52 0 0 0 0 0 0
0 0 0 0 0 0 0 0 0 0 0 0 0 0 0 0 0 0 0 8 15 15 17 27 26 84 94 22 91 138 83 25 157 6 57 0 32 6 0 0 0 0 0
0 0 0 0 0 0 0 0 0 0 0 0 0 7 8 33 38 14 19 8 13 15 18 41 44 0 28 58 55 9 17 18 6 0 3 0 0 0 2 0 0 0 0
0 0 0 0 0 0 0 0 0 0 0 0 21 43 66 100 142 147 138 102 54 17 13 9 12 0 0 3 53 46 3 0 7 0 0 0 0 0 0 0 0 0 0
0 0 0 0 0 0 0 0 0 0 1 17 43 63 120 176 227 278 321 271 245 125 58 5 8 0 0 21 4 9 2 6 3 0 2 1 0 0 0 0 0 0 0
0 0 0 0 0 0 0 0 2 3 16 67 133 164 246 322 332 376 455 464 443 386 251 94 5 0 0 19 38 0 0 1 1 0 1 4 2 5 0 0 0 0 0
0 0 0 0 0 0 0 0 11 7 16 64 191 377 503 531 557 588 607 626 643 583 523 274 13 1 0 0 12 22 13 0 1 3 0 0 0 0 5 0 0 0 0
0 0 0 0 0 0 0 0 1 0 1 6 53 169 302 393 473 539 736 763 799 807 713 367 47 39 31 1 0 0 0 0 0 0 0 0 0 0 0 0 0 0 0
0 0 0 0 0 0 0 0 0 0 0 1 14 10 4 67 324 589 818 876 853 771 649 316 62 60 72 30 1 0 0 0 0 0 0 0 0 0 0 0 0 0 0
0 0 0 0 2 1 0 1 0 0 0 0 1 2 5 18 41 418 699 675 672 672 496 241 16 29 49 57 19 0 0 0 0 0 0 0 0 0 0 0 0 0 0
0 0 0 0 0 0 0 0 0 0 7 0 0 0 0 0 3 42 403 447 459 506 470 228 64 0 25 88 54 11 0 0 0 0 0 0 0 0 0 0 0 0 0
0 0 0 0 0 0 0 4 12 10 4 12 8 0 0 0 14 13 55 265 410 491 526 265 71 13 2 44 67 23 0 0 0 0 0 0 0 0 0 0 0 0 0
0 0 0 0 0 0 0 2 7 29 31 15 11 4 2 5 14 59 113 248 395 466 493 359 87 8 0 33 71 44 0 0 0 0 0 0 0 0 0 0 0 0 0
0 0 1 2 3 3 3 2 2 14 67 42 43 46 82 81 94 143 243 294 257 379 367 210 18 0 0 50 77 34 9 0 0 0 0 0 0 0 0 0 0 0 0
27 31 28 20 16 11 20 23 18 14 19 57 94 97 105 120 209 273 136 0 0 0 17 71 45 0 0 38 79 39 0 5 1 0 0 0 0 0 0 0 0 4 0
0 0 0 0 2 21 20 32 42 41 29 26 21 20 43 77 93 17 0 0 0 0 12 61 42 0 0 30 86 73 21 17 0 0 0 0 1 0 0 0 0 0 0
0 0 0 0 0 0 0 0 0 49 50 38 66 1 0 0 0 0 0 0 0 19 35 33 9 0 0 22 71 116 23 7 8 0 0 0 0 0 0 0 0 0 0
0 0 0 0 0 0 0 0 0 0 64 70 0 0 0 0 0 0 0 0 0 0 0 0 0 0 0 0 54 124 63 15 2 1 0 0 0 0 0 0 0 0 0
0 0 0 0 0 0 0 0 0 0 0 0 0 0 0 0 0 1 0 0 1 0 3 0 0 0 0 0 25 17 86 1 2 0 0 0 0 0 0 0 0 0 0
0 0 0 0 0 0 0 0 0 0 0 0 0 2 2 1 12 22 18 8 4 0 2 0 0 0 0 3 14 7 97 41 10 3 0 0 0 0 0 0 0 0 0
0 0 0 0 0 0 0 0 0 0 0 0 2 0 4 10 6 0 0 0 0 7 23 27 6 7 1 6 5 79 6 2 4 1 0 0 0 0 0 0 0 0 0
CIN
0 0 0 0 0 0 0 -443 -214 -117 -8 -23 -48 -57 -60 -19 -14 -29 -43 -44 -52 -64 -89 -49 -31 -63 -17 -4 -7 -10 -1 0 -30 0 0 0 0 0 0 0 0 0 0
0 0 0 0 0 0 0 0 0 0 -194 -15 0 -3 -13 -61 -21 -29 -12 -13 -51 -47 -56 -26 -19 -37 -28 -24 -5 -1 -18 -27 0 -7 0 0 0 0 0 0 0 0 0
0 0 0 0 0 0 0 0 0 0 0 0 -64 -85 0 -7 -14 -30 -27 -57 -22 -36 -19 -31 -36 -6 -6 -36 -12 -1 -1 -2 -22 -12 -3 0 0 0 0 0 0 0 0
0 0 0 0 0 0 0 0 0 0 0 0 0 0 0 -54 -52 -69 -12 0 -2 -23 -38 -24 0 -2 -1 0 0 -3 0 0 -33 -3 -3 0 0 0 0 0 0 0 0
0 0 0 0 0 0 0 0 0 0 0 0 0 0 0 0 0 0 0 0 -109 -14 0 -4 -1 -11 -1 0 0 0 0 -1 -1 -1 -56 -6 -20 -1 0 -1 0 0 0
0 0 0 0 0 0 0 0 0 0 0 0 0 0 0 0 0 0 0 0 0 -2 -10 -86 -26 -2 -2 -6 -4 -4 -1 0 -11 0 -5 0 -1 0 0 0 0 0 0
0 0 0 0 0 0 0 0 0 0 0 0 0 0 0 0 0 0 0 0 0 0 0 0 -21 -53 -142 -4 -16 -5 -24 -18 -1 0 -10 0 0 0 0 0 0 0 0
0 0 0 0 0 0 0 0 0 0 0 0 0 -77 -64 -41 -19 -35 -37 0 0 0 0 -55 0 0 -31 -3 -9 -4 0 -23 0 0 0 0 0 0 0 0 0 0 0
0 0 0 0 0 0 0 0 0 0 0 0 -85 -88 -69 -50 -21 -8 -4 -6 -15 -45 -80 0 0 0 0 -13 -16 -9 0 0 0 0 0 0 0 0 0 0 0 0 0
0 0 0 0 0 0 0 0 0 0 -36 -113 -98 -87 -75 -59 -35 -14 -2 -3 -1 -8 -14 -13 0 0 -3 -50 -33 -59 -3 -1 0 0 -1 0 0 0 0 0 0 0 0
0 0 0 0 0 0 0 0 -52 -68 -75 -55 -46 -58 -60 -46 -31 -18 -4 0 0 -1 -5 -15 0 0 0 -47 -30 0 0 0 0 0 0 0 0 0 0 0 0 0 0
0 0 0 0 0 0 0 -1 -14 -12 -21 -22 -19 -16 -16 -11 -13 -5 -6 -2 -6 -5 -2 -18 -31 -3 0 0 -87 -41 -60 0 0 0 0 0 0 0 0 0 0 0 0
0 0 0 0 0 0 0 0 -5 0 -14 -16 -28 -28 -22 -17 -9 -7 -3 -5 -3 -4 -3 -24 -60 -38 -51 -2 0 0 0 0 0 0 0 0 0 0 0 0 0 0 0
0 0 0 0 0 0 0 0 0 0 0 -11 -8 -7 -45 -35 -20 -12 -3 -8 -8 -16 -11 -35 -78 -56 -28 0 0 0 0 0 0 0 0 0 0 0 0 0 0 0 0
0 0 0 0 0 0 0 -24 0 0 -30 -9 -2 -5 -35 -61 -50 -17 -5 -11 -15 -25 -34 -53 -131 -75 -26 -8 -1 -1 0 0 0 0 0 0 0 0 0 0 0 0 0
0 0 0 0 0 0 0 0 -1 -1 -38 -23 -11 0 0 -1 -40 -36 -30 -33 -32 -27 -29 -60 -99 -38 -53 -6 0 0 0 0 0 0 0 0 0 0 0 0 0 0 0
0 0 0 0 0 0 0 -20 -28 -41 -17 -7 -13 -3 0 -16 -35 -38 -35 -46 -37 -35 -26 -55 -92 -117 -110 -24 0 0 0 0 0 0 0 0 0 0 0 0 0 0 0
0 0 0 0 0 0 0 -7 -19 -10 -11 -27 -30 -34 -13 -17 -30 -36 -42 -39 -34 -38 -30 -33 -96 -11 -5 -28 0 0 -1 0 -1 0 0 0 0 0 0 0 0 0 0
0 0 0 0 0 0 0 0 0 -9 0 -1 -4 -5 -1 -1 -13 -12 -23 -56 -67 -35 -43 -74 -47 0 0 -32 -1 0 -1 0 0 0 0 -1 0 0 0 0 0 0 0
0 0 0 0 0 0 0 0 0 0 -1 0 0 -1 -10 -16 -17 -35 -74 0 0 0 -118 -51 -29 0 0 -59 -3 -1 -1 -6 0 0 0 0 0 0 0 0 0 -4 0
0 0 0 0 0 0 0 0 0 0 0 -4 -3 -27 -55 -78 -90 -118 0 0 0 -5 -61 -34 -31 -4 0 -85 -13 0 -1 -1 0 0 0 -2 -1 0 0 0 0 0 0
0 0 0 0 0 0 0 0 0 0 0 0 -1 0 0 0 0 0 0 -29 0 -31 -22 -19 -35 -11 0 -73 -26 0 -5 -12 0 0 0 0 0 0 0 0 0 0 0
0 0 0 0 0 0 0 0 0 0 0 -3 0 0 0 0 0 0 0 0 0 -6 -61 0 0 0 0 -4 -35 0 -1 -2 -1 -13 0 0 0 0 0 0 0 0 0
0 0 0 0 0 0 0 0 0 0 0 0 0 0 0 0 0 -3 0 -4 -5 0 -33 0 0 0 0 -1 -45 -35 0 -1 0 0 0 0 0 0 0 0 0 0 0
0 0 0 0 0 0 0 0 0 0 0 0 0 0 -1 -4 -9 -11 -5 -2 -8 -3 -8 0 0 0 0 -21 -29 -38 0 -1 -1 -3 0 0 0 0 0 0 0 0 0
0 0 0 0 0 0 0 0 0 0 0 0 0 0 -6 -3 -3 -1 0 0 0 -3 -6 -8 -10 -4 -8 -14 -6 0 -5 0 -5 -2 0 0 0 0 0 0 0 0 0
Wind_Speed
nan nan nan nan nan nan nan nan 46 40 37 38 35 34 33 35 33 31 30 32 36 38 41 41 43 46 47 52 52 nan nan nan nan nan nan nan nan nan nan nan nan nan nan
nan nan nan nan nan nan nan nan nan nan 45 44 40 39 42 40 39 40 37 35 36 39 40 41 44 45 47 53 57 59 nan nan nan nan nan nan nan nan nan nan nan nan nan
nan nan nan nan nan nan nan nan nan nan nan nan 50 51 50 49 51 50 48 49 45 43 44 46 46 52 51 56 59 61 62 59 nan nan nan nan nan nan nan nan nan nan nan
nan nan nan nan nan nan nan nan nan nan nan nan nan nan nan nan nan 63 61 56 53 54 52 49 52 53 58 56 61 59 63 63 nan 57 nan nan nan nan nan nan nan nan nan
nan nan nan nan nan nan nan nan nan nan nan nan nan nan nan nan nan nan nan nan nan 70 60 59 55 58 64 63 61 62 60 67 70 64 nan nan nan nan nan nan nan nan nan
nan nan nan nan nan nan nan nan nan nan nan nan nan nan nan nan nan nan nan nan nan nan nan 72 70 63 68 64 68 63 57 67 62 nan nan nan nan nan nan nan nan nan nan
nan nan nan nan nan nan nan nan nan nan nan nan nan nan nan nan nan nan nan nan nan nan nan nan nan nan nan nan nan 74 nan nan 73 nan nan nan nan nan nan nan nan nan nan
nan nan nan nan nan nan nan nan nan nan nan nan nan nan nan nan nan nan nan nan nan nan nan nan nan nan nan nan nan nan nan nan nan nan nan nan nan nan nan nan nan nan nan
nan nan nan nan nan nan nan nan nan nan nan nan nan nan nan 89 90 88 89 93 nan nan nan nan nan nan nan nan nan nan nan nan nan nan nan nan nan nan nan nan nan nan nan
nan nan nan nan nan nan nan nan nan nan nan nan nan nan 89 91 91 87 83 82 74 73 nan nan nan nan nan nan nan nan nan nan nan nan nan nan nan nan nan nan nan nan nan
nan nan nan nan nan nan nan nan nan nan nan nan 86 80 71 64 60 54 53 55 56 58 54 nan nan nan nan nan nan nan nan nan nan nan nan nan nan nan nan nan nan nan nan
nan nan nan nan nan nan nan nan nan nan nan nan 66 59 59 60 57 55 54 52 47 45 42 48 nan nan nan nan nan nan nan nan nan nan nan nan nan nan nan nan nan nan nan
nan nan nan nan nan nan nan nan nan nan nan nan nan 50 52 52 48 46 48 53 52 48 45 39 nan nan nan nan nan nan nan nan nan nan nan nan nan nan nan nan nan nan nan
nan nan nan nan nan nan nan nan nan nan nan nan nan nan nan nan 46 44 41 34 33 31 38 40 nan nan nan nan nan nan nan nan nan nan nan nan nan nan nan nan nan nan nan
nan nan nan nan nan nan nan nan nan nan nan nan nan nan nan nan nan 41 37 26 27 25 28 25 nan nan nan nan nan nan nan nan nan nan nan nan nan nan nan nan nan nan nan
nan nan nan nan nan nan nan nan nan nan nan nan nan nan nan nan nan nan 39 35 34 31 29 23 nan nan nan nan nan nan nan nan nan nan nan nan nan nan nan nan nan nan nan
nan nan nan nan nan nan nan nan nan nan nan nan nan nan nan nan nan nan nan 40 36 33 31 31 nan nan nan nan nan nan nan nan nan nan nan nan nan nan nan nan nan nan nan
nan nan nan nan nan nan nan nan nan nan nan nan nan nan nan nan nan nan 31 35 37 34 30 30 nan nan nan nan nan nan nan nan nan nan nan nan nan nan nan nan nan nan nan
nan nan nan nan nan nan nan nan nan nan nan nan nan nan nan nan nan 34 34 38 37 35 35 33 nan nan nan nan nan nan nan nan nan nan nan nan nan nan nan nan nan nan nan
nan nan nan nan nan nan nan nan nan nan nan nan nan nan 35 36 36 37 38 nan nan nan nan nan nan nan nan nan nan nan nan nan nan nan nan nan nan nan nan nan nan nan nan
nan nan nan nan nan nan nan nan nan nan nan nan nan nan nan nan nan nan nan nan nan nan nan nan nan nan nan nan nan nan nan nan nan nan nan nan nan nan nan nan nan nan nan
nan nan nan nan nan nan nan nan nan nan nan nan nan nan nan nan nan nan nan nan nan nan nan nan nan nan nan nan nan 30 nan nan nan nan nan nan nan nan nan nan nan nan nan
nan nan nan nan nan nan nan nan nan nan nan nan nan nan nan nan nan nan nan nan nan nan nan nan nan nan nan nan nan 33 nan nan nan nan nan nan nan nan nan nan nan nan nan
nan nan nan nan nan nan nan nan nan nan nan nan nan nan nan nan nan nan nan nan nan nan nan nan nan nan nan nan nan nan nan nan nan nan nan nan nan nan nan nan nan nan nan
nan nan nan nan nan nan nan nan nan nan nan nan nan nan nan nan nan nan nan nan nan nan nan nan nan nan nan nan nan nan nan nan nan nan nan nan nan nan nan nan nan nan nan
nan nan nan nan nan nan nan nan nan nan nan nan nan nan nan nan nan nan nan nan nan nan nan nan nan nan nan nan nan nan nan nan nan nan nan nan nan nan nan nan nan nan nan
Wind_Direction
nan nan nan nan nan nan nan nan 250 246 254 264 265 267 280 288 288 285 291 299 302 292 292 288 289 294 301 299 297 nan nan nan nan nan nan nan nan nan nan nan nan nan nan
nan nan nan nan nan nan nan nan nan nan 253 255 262 265 270 273 280 283 291 294 292 296 292 294 289 292 297 300 297 295 nan nan nan nan nan nan nan nan nan nan nan nan nan
nan nan nan nan nan nan nan nan nan nan nan nan 254 256 260 265 266 271 274 283 289 288 291 292 288 290 284 288 288 291 296 289 nan nan nan nan nan nan nan nan nan nan nan
nan nan nan nan nan nan nan nan nan nan nan nan nan nan nan nan nan 264 266 269 277 286 287 287 286 280 281 285 283 284 289 288 nan 283 nan nan nan nan nan nan nan nan nan
nan nan nan nan nan nan nan nan nan nan nan nan nan nan nan nan nan nan nan nan nan 272 277 279 280 283 279 281 282 277 280 282 282 281 nan nan nan nan nan nan nan nan nan
nan nan nan nan nan nan nan nan nan nan nan nan nan nan nan nan nan nan nan nan nan nan nan 273 275 271 274 278 277 276 285 278 268 nan nan nan nan nan nan nan nan nan nan
nan nan nan nan nan nan nan nan nan nan nan nan nan nan nan nan nan nan nan nan nan nan nan nan nan nan nan nan nan 270 nan nan 264 nan nan nan nan nan nan nan nan nan nan
nan nan nan nan nan nan nan nan nan nan nan nan nan nan nan nan nan nan nan nan nan nan nan nan nan nan nan nan nan nan nan nan nan nan nan nan nan nan nan nan nan nan nan
nan nan nan nan nan nan nan nan nan nan nan nan nan nan nan 287 286 282 278 277 nan nan nan nan nan nan nan nan nan nan nan nan nan nan nan nan nan nan nan nan nan nan nan
nan nan nan nan nan nan nan nan nan nan nan nan nan nan 287 288 287 286 285 283 281 280 nan nan nan nan nan nan nan nan nan nan nan nan nan nan nan nan nan nan nan nan nan
nan nan nan nan nan nan nan nan nan nan nan nan 284 287 288 287 285 278 275 275 272 271 272 nan nan nan nan nan nan nan nan nan nan nan nan nan nan nan nan nan nan nan nan
nan nan nan nan nan nan nan nan nan nan nan nan 288 282 276 278 279 275 274 274 276 274 273 270 nan nan nan nan nan nan nan nan nan nan nan nan nan nan nan nan nan nan nan
nan nan nan nan nan nan nan nan nan nan nan nan nan 276 271 272 274 274 274 271 275 271 267 274 nan nan nan nan nan nan nan nan nan nan nan nan nan nan nan nan nan nan nan
nan nan nan nan nan nan nan nan nan nan nan nan nan nan nan nan 259 264 269 263 267 267 270 268 nan nan nan nan nan nan nan nan nan nan nan nan nan nan nan nan nan nan nan
nan nan nan nan nan nan nan nan nan nan nan nan nan nan nan nan nan 254 261 250 257 266 259 252 nan nan nan nan nan nan nan nan nan nan nan nan nan nan nan nan nan nan nan
nan nan nan nan nan nan nan nan nan nan nan nan nan nan nan nan nan nan 254 250 251 258 266 264 nan nan nan nan nan nan nan nan nan nan nan nan nan nan nan nan nan nan nan
nan nan nan nan nan nan nan nan nan nan nan nan nan nan nan nan nan nan nan 249 250 254 261 270 nan nan nan nan nan nan nan nan nan nan nan nan nan nan nan nan nan nan nan
nan nan nan nan nan nan nan nan nan nan nan nan nan nan nan nan nan nan 256 254 254 252 252 257 nan nan nan nan nan nan nan nan nan nan nan nan nan nan nan nan nan nan nan
nan nan nan nan nan nan nan nan nan nan nan nan nan nan nan nan nan 257 254 251 251 249 252 250 nan nan nan nan nan nan nan nan nan nan nan nan nan nan nan nan nan nan nan
nan nan nan nan nan nan nan nan nan nan nan nan nan nan 265 269 267 258 254 nan nan nan nan nan nan nan nan nan nan nan nan nan nan nan nan nan nan nan nan nan nan nan nan
nan nan nan nan nan nan nan nan nan nan nan nan nan nan nan nan nan nan nan nan nan nan nan nan nan nan nan nan nan nan nan nan nan nan nan nan nan nan nan nan nan nan nan
nan nan nan nan nan nan nan nan nan nan nan nan nan nan nan nan nan nan nan nan nan nan nan nan nan nan nan nan nan 262 nan nan nan nan nan nan nan nan nan nan nan nan nan
nan nan nan nan nan nan nan nan nan nan nan nan nan nan nan nan nan nan nan nan nan nan nan nan nan nan nan nan nan 252 nan nan nan nan nan nan nan nan nan nan nan nan nan
nan nan nan nan nan nan nan nan nan nan nan nan nan nan nan nan nan nan nan nan nan nan nan nan nan nan nan nan nan nan nan nan nan nan nan nan nan nan nan nan nan nan nan
nan nan nan nan nan nan nan nan nan nan nan nan nan nan nan nan nan nan nan nan nan nan nan nan nan nan nan nan nan nan nan nan nan nan nan nan nan nan nan nan nan nan nan
nan nan nan nan nan nan nan nan nan nan nan nan nan nan nan nan nan nan nan nan nan nan nan nan nan nan nan nan nan nan nan nan nan nan nan nan nan nan nan nan nan nan nan